TimeMDT,TemperatureF,Dew PointF,Humidity,Sea Level PressureIn,VisibilityMPH,Wind Direction,Wind SpeedMPH,Gust SpeedMPH,PrecipitationIn,Events,Conditions,WindDirDegrees,DateUTC
12:53 AM,39.0,21.0,49,29.96,10.0,WNW,17.3,24.2,N/A,,Clear,300,2012-10-18 06:53:00
1:53 AM,39.0,19.0,45,29.98,10.0,WNW,17.3,-,N/A,,Clear,290,2012-10-18 07:53:00
2:53 AM,39.0,18.0,43,29.99,10.0,WNW,16.1,-,N/A,,Clear,300,2012-10-18 08:53:00
3:53 AM,39.0,17.1,41,30.00,10.0,WNW,17.3,26.5,N/A,,Clear,300,2012-10-18 09:53:00
4:53 AM,39.0,17.1,41,30.00,10.0,WNW,18.4,27.6,N/A,,Clear,300,2012-10-18 10:53:00
5:53 AM,39.0,17.1,41,30.02,10.0,WNW,17.3,31.1,N/A,,Clear,300,2012-10-18 11:53:00
6:53 AM,37.9,17.1,43,30.04,10.0,WNW,19.6,26.5,N/A,,Clear,290,2012-10-18 12:53:00
7:53 AM,39.9,16.0,38,30.06,10.0,WNW,27.6,36.8,N/A,,Clear,300,2012-10-18 13:53:00
8:53 AM,42.1,16.0,35,30.06,10.0,WNW,34.5,47.2,N/A,,Clear,300,2012-10-18 14:53:00
9:53 AM,44.1,16.0,32,30.06,6.0,WNW,41.4,52.9,N/A,,Haze,300,2012-10-18 15:53:00
10:53 AM,46.9,17.1,30,30.07,8.0,WNW,32.2,44.9,N/A,,Clear,300,2012-10-18 16:53:00
11:53 AM,50.0,17.1,27,30.07,10.0,WNW,35.7,47.2,N/A,,Clear,300,2012-10-18 17:53:00
1:53 PM,53.1,12.0,20,30.03,9.0,WNW,33.4,47.2,N/A,,Clear,300,2012-10-18 19:53:00
2:53 PM,54.0,10.9,18,30.03,9.0,NW,32.2,47.2,N/A,,Clear,310,2012-10-18 20:53:00
3:53 PM,54.0,10.0,17,30.04,10.0,NW,32.2,41.4,N/A,,Clear,310,2012-10-18 21:53:00
4:53 PM,53.1,7.0,16,30.05,10.0,NW,29.9,43.7,N/A,,Clear,310,2012-10-18 22:53:00
5:53 PM,50.0,5.0,16,30.06,10.0,NW,26.5,35.7,N/A,,Clear,310,2012-10-18 23:53:00
6:53 PM,46.9,5.0,18,30.09,10.0,NW,19.6,27.6,N/A,,Clear,310,2012-10-19 00:53:00
7:53 PM,44.1,7.0,22,30.10,10.0,WNW,18.4,-,N/A,,Clear,300,2012-10-19 01:53:00
8:53 PM,43.0,8.1,24,30.09,10.0,WNW,19.6,27.6,N/A,,Clear,300,2012-10-19 02:53:00
9:53 PM,42.1,8.1,25,30.10,10.0,WNW,19.6,28.8,N/A,,Clear,300,2012-10-19 03:53:00
10:53 PM,37.9,8.1,29,30.10,10.0,NW,11.5,-,N/A,,Clear,310,2012-10-19 04:53:00
11:53 PM,37.0,9.0,31,30.09,10.0,WNW,16.1,-,N/A,,Clear,290,2012-10-19 05:53:00